QPF
0.05 0.05 0.05 0.06 0.07 0.06 0.05 0.04 0.03 0.02 0.01 0.01 0.02 0.02 0.03 0.03 0.03 0.03 0.03 0.04 0.04 0.05 0.06 0.05 0.05 0.06 0.06 0.06 0.06 0.06 0.06 0.06 0.05 0.05 0.06 0.07 0.07 0.06
0.04 0.05 0.05 0.05 0.05 0.06 0.05 0.04 0.04 0.04 0.02 0.02 0.02 0.02 0.03 0.03 0.04 0.03 0.03 0.03 0.03 0.02 0.02 0.03 0.03 0.05 0.07 0.08 0.06 0.05 0.06 0.09 0.10 0.09 0.08 0.07 0.06 0.05
0.03 0.04 0.05 0.05 0.04 0.04 0.05 0.04 0.04 0.04 0.02 0.02 0.01 0.02 0.02 0.02 0.03 0.03 0.02 0.02 0.02 0.02 0.02 0.01 0.01 0.01 0.03 0.04 0.05 0.05 0.05 0.06 0.07 0.07 0.06 0.05 0.04 0.05
0.05 0.04 0.03 0.03 0.02 0.03 0.04 0.04 0.03 0.04 0.03 0.02 0.01 0.02 0.02 0.03 0.02 0.02 0.01 0.01 0.01 0.02 0.02 0.02 0.01 0.01 0.01 0.01 0.02 0.02 0.02 0.02 0.02 0.03 0.04 0.04 0.04 0.03
0.05 0.04 0.03 0.04 0.03 0.04 0.04 0.04 0.03 0.03 0.03 0.02 0.01 0.02 0.02 0.03 0.02 0.01 0.01 0.01 0.01 0.01 0.02 0.02 0.01 0.01 0.01 0.01 0.01 0.01 0.01 0.02 0.01 0.01 0.02 0.02 0.02 0.02
0.03 0.03 0.03 0.03 0.04 0.04 0.04 0.04 0.04 0.04 0.04 0.03 0.02 0.02 0.02 0.02 0.02 0.01 0.01 0.01 0.01 0.01 0.02 0.01 0.02 0.02 0.01 0.01 0.01 0.01 0.01 0.01 0.01 0.01 0.01 0.01 0.01 0.01
0.03 0.03 0.03 0.04 0.05 0.05 0.05 0.05 0.05 0.05 0.04 0.04 0.04 0.03 0.02 0.01 0.01 0.02 0.02 0.02 0.02 0.01 0.01 0.01 0.01 0.01 0.01 0.01 0.01 0.01 0.01 0.01 0.01 0.01 0.01 0.01 0.01 0.01
0.04 0.04 0.04 0.04 0.05 0.05 0.06 0.06 0.06 0.05 0.05 0.04 0.04 0.03 0.02 0.02 0.02 0.02 0.02 0.02 0.01 0.01 0.01 0.01 0.02 0.02 0.02 0.02 0.02 0.02 0.01 0.01 0.01 0.01 0.01 0.02 0.02 0.01
0.04 0.04 0.05 0.04 0.05 0.05 0.05 0.04 0.04 0.04 0.03 0.04 0.03 0.02 0.02 0.02 0.03 0.03 0.02 0.02 0.02 0.02 0.03 0.02 0.01 0.01 0.01 0.02 0.03 0.02 0.02 0.02 0.01 0.01 0.01 0.01 0.01 0.02
0.04 0.03 0.03 0.03 0.05 0.05 0.03 0.03 0.02 0.02 0.02 0.03 0.02 0.02 0.02 0.04 0.04 0.03 0.03 0.03 0.02 0.03 0.03 0.02 0.01 0.01 0.02 0.02 0.03 0.03 0.03 0.02 0.02 0.02 0.02 0.01 0.01 0.01
0.04 0.04 0.04 0.05 0.07 0.07 0.05 0.04 0.02 0.02 0.03 0.04 0.03 0.03 0.04 0.04 0.05 0.04 0.03 0.03 0.02 0.02 0.03 0.03 0.03 0.04 0.04 0.04 0.05 0.05 0.04 0.03 0.03 0.02 0.02 0.03 0.03 0.02
0.06 0.06 0.08 0.09 0.11 0.12 0.09 0.07 0.04 0.03 0.04 0.04 0.04 0.03 0.03 0.04 0.05 0.04 0.03 0.04 0.03 0.03 0.03 0.03 0.03 0.05 0.05 0.05 0.06 0.06 0.04 0.03 0.03 0.04 0.04 0.04 0.04 0.04
0.12 0.12 0.13 0.12 0.11 0.10 0.08 0.06 0.05 0.06 0.07 0.06 0.05 0.04 0.05 0.04 0.04 0.04 0.04 0.05 0.04 0.03 0.03 0.04 0.04 0.05 0.05 0.06 0.07 0.06 0.05 0.04 0.04 0.05 0.05 0.06 0.07 0.06
0.07 0.08 0.08 0.09 0.10 0.11 0.11 0.11 0.13 0.14 0.12 0.11 0.08 0.06 0.05 0.05 0.05 0.05 0.05 0.04 0.04 0.03 0.04 0.05 0.06 0.06 0.07 0.07 0.07 0.06 0.06 0.05 0.05 0.05 0.05 0.06 0.08 0.09
0.06 0.05 0.06 0.07 0.08 0.09 0.11 0.13 0.13 0.12 0.10 0.08 0.06 0.05 0.05 0.05 0.05 0.04 0.03 0.03 0.04 0.03 0.03 0.04 0.05 0.06 0.07 0.07 0.06 0.06 0.06 0.06 0.05 0.04 0.04 0.05 0.05 0.06
0.04 0.04 0.04 0.04 0.04 0.04 0.04 0.04 0.04 0.05 0.05 0.04 0.04 0.04 0.04 0.04 0.04 0.03 0.03 0.03 0.02 0.02 0.03 0.03 0.04 0.05 0.05 0.07 0.07 0.07 0.06 0.06 0.06 0.05 0.05 0.04 0.03 0.03
0.04 0.04 0.04 0.05 0.05 0.05 0.04 0.03 0.03 0.03 0.03 0.03 0.03 0.03 0.03 0.03 0.03 0.03 0.03 0.03 0.02 0.02 0.02 0.03 0.03 0.04 0.04 0.05 0.06 0.05 0.06 0.06 0.07 0.07 0.06 0.05 0.03 0.02
0.05 0.04 0.04 0.04 0.04 0.04 0.04 0.03 0.03 0.03 0.04 0.04 0.04 0.03 0.03 0.03 0.03 0.03 0.03 0.03 0.02 0.01 0.01 0.02 0.02 0.03 0.04 0.03 0.03 0.03 0.04 0.05 0.06 0.06 0.05 0.05 0.04 0.03
0.04 0.04 0.04 0.04 0.05 0.06 0.06 0.06 0.06 0.04 0.04 0.04 0.03 0.03 0.03 0.04 0.04 0.04 0.04 0.04 0.03 0.03 0.02 0.02 0.03 0.03 0.03 0.02 0.02 0.03 0.04 0.04 0.05 0.06 0.06 0.04 0.04 0.04
0.05 0.05 0.05 0.06 0.06 0.06 0.06 0.06 0.06 0.06 0.05 0.05 0.04 0.03 0.03 0.04 0.04 0.04 0.05 0.05 0.05 0.05 0.04 0.04 0.03 0.03 0.04 0.04 0.04 0.04 0.04 0.05 0.05 0.05 0.05 0.05 0.06 0.06
0.07 0.08 0.08 0.08 0.07 0.05 0.05 0.04 0.06 0.07 0.06 0.06 0.06 0.05 0.05 0.05 0.05 0.05 0.05 0.05 0.05 0.05 0.05 0.05 0.05 0.07 0.07 0.07 0.06 0.04 0.04 0.06 0.07 0.07 0.07 0.06 0.05 0.05
0.05 0.06 0.07 0.06 0.05 0.04 0.04 0.03 0.04 0.04 0.05 0.08 0.07 0.06 0.06 0.07 0.07 0.06 0.06 0.05 0.05 0.05 0.05 0.06 0.07 0.07 0.07 0.07 0.06 0.07 0.08 0.09 0.09 0.09 0.09 0.07 0.05 0.04
0.02 0.03 0.03 0.04 0.04 0.04 0.04 0.04 0.03 0.02 0.02 0.04 0.05 0.04 0.04 0.07 0.09 0.09 0.09 0.08 0.07 0.06 0.06 0.06 0.06 0.06 0.06 0.07 0.07 0.08 0.08 0.10 0.09 0.08 0.07 0.06 0.06 0.05
MSLP
1012.14 1012.44 1012.78 1013.15 1013.55 1013.92 1014.24 1014.49 1014.65 1014.71 1014.70 1014.62 1014.50 1014.38 1014.28 1014.21 1014.18 1014.21 1014.28 1014.39 1014.53 1014.70 1014.90 1015.14 1015.42 1015.76 1016.16 1016.62 1017.16 1017.75 1018.38 1019.03 1019.69 1020.31 1020.89 1021.40 1021.85 1022.21
1011.12 1011.40 1011.75 1012.16 1012.60 1013.04 1013.44 1013.79 1014.05 1014.22 1014.31 1014.31 1014.26 1014.18 1014.10 1014.03 1013.99 1013.98 1014.02 1014.10 1014.21 1014.37 1014.58 1014.83 1015.14 1015.52 1015.97 1016.48 1017.06 1017.69 1018.36 1019.03 1019.69 1020.32 1020.89 1021.39 1021.82 1022.18
1010.11 1010.37 1010.72 1011.14 1011.63 1012.13 1012.62 1013.07 1013.44 1013.73 1013.92 1014.03 1014.07 1014.06 1014.02 1013.98 1013.95 1013.94 1013.96 1014.03 1014.13 1014.28 1014.49 1014.76 1015.09 1015.49 1015.97 1016.51 1017.11 1017.76 1018.43 1019.10 1019.75 1020.36 1020.92 1021.41 1021.83 1022.18
1009.16 1009.38 1009.71 1010.14 1010.65 1011.20 1011.76 1012.29 1012.77 1013.16 1013.46 1013.68 1013.82 1013.90 1013.94 1013.96 1013.97 1013.99 1014.03 1014.10 1014.21 1014.37 1014.59 1014.86 1015.21 1015.62 1016.10 1016.65 1017.25 1017.89 1018.54 1019.19 1019.83 1020.42 1020.96 1021.44 1021.86 1022.22
1008.31 1008.48 1008.77 1009.18 1009.68 1010.25 1010.84 1011.43 1011.97 1012.44 1012.85 1013.17 1013.41 1013.60 1013.73 1013.84 1013.92 1014.01 1014.10 1014.21 1014.36 1014.54 1014.77 1015.06 1015.41 1015.82 1016.29 1016.83 1017.40 1018.01 1018.64 1019.26 1019.87 1020.44 1020.98 1021.46 1021.89 1022.27
1007.58 1007.68 1007.90 1008.26 1008.72 1009.26 1009.85 1010.44 1011.00 1011.53 1012.00 1012.40 1012.75 1013.03 1013.28 1013.49 1013.68 1013.86 1014.04 1014.22 1014.43 1014.66 1014.92 1015.23 1015.59 1016.00 1016.45 1016.96 1017.50 1018.07 1018.66 1019.25 1019.83 1020.40 1020.93 1021.43 1021.88 1022.30
1006.98 1006.99 1007.13 1007.41 1007.79 1008.26 1008.79 1009.34 1009.89 1010.42 1010.91 1011.37 1011.78 1012.16 1012.51 1012.84 1013.15 1013.44 1013.73 1014.02 1014.31 1014.61 1014.93 1015.27 1015.65 1016.05 1016.50 1016.98 1017.48 1018.02 1018.57 1019.13 1019.70 1020.26 1020.80 1021.32 1021.82 1022.28
1006.51 1006.43 1006.48 1006.65 1006.93 1007.30 1007.73 1008.20 1008.68 1009.16 1009.64 1010.11 1010.57 1011.01 1011.45 1011.89 1012.31 1012.73 1013.14 1013.54 1013.93 1014.32 1014.71 1015.10 1015.51 1015.93 1016.37 1016.83 1017.32 1017.82 1018.35 1018.89 1019.45 1020.02 1020.59 1021.14 1021.68 1022.19
1006.17 1006.01 1005.97 1006.03 1006.20 1006.44 1006.75 1007.10 1007.48 1007.88 1008.31 1008.75 1009.21 1009.69 1010.19 1010.70 1011.23 1011.75 1012.27 1012.78 1013.28 1013.76 1014.23 1014.69 1015.14 1015.59 1016.05 1016.51 1017.00 1017.49 1018.01 1018.55 1019.11 1019.70 1020.29 1020.88 1021.47 1022.02
1005.97 1005.76 1005.64 1005.61 1005.66 1005.78 1005.96 1006.18 1006.43 1006.73 1007.06 1007.44 1007.87 1008.35 1008.87 1009.42 1010.01 1010.61 1011.22 1011.82 1012.40 1012.97 1013.52 1014.05 1014.56 1015.06 1015.55 1016.04 1016.53 1017.04 1017.57 1018.12 1018.70 1019.30 1019.92 1020.55 1021.17 1021.76
1005.92 1005.67 1005.51 1005.41 1005.37 1005.38 1005.43 1005.52 1005.65 1005.83 1006.06 1006.35 1006.72 1007.15 1007.64 1008.20 1008.80 1009.44 1010.09 1010.75 1011.40 1012.03 1012.65 1013.24 1013.81 1014.36 1014.90 1015.43 1015.95 1016.49 1017.04 1017.61 1018.21 1018.83 1019.47 1020.13 1020.78 1021.40
1006.00 1005.76 1005.58 1005.44 1005.33 1005.26 1005.21 1005.18 1005.20 1005.26 1005.38 1005.57 1005.84 1006.20 1006.64 1007.16 1007.73 1008.35 1009.01 1009.68 1010.36 1011.02 1011.68 1012.32 1012.94 1013.54 1014.13 1014.70 1015.27 1015.84 1016.41 1017.01 1017.63 1018.27 1018.94 1019.61 1020.28 1020.91
1006.21 1006.00 1005.82 1005.66 1005.51 1005.38 1005.25 1005.13 1005.05 1005.00 1005.01 1005.10 1005.28 1005.54 1005.90 1006.34 1006.85 1007.42 1008.04 1008.68 1009.34 1010.01 1010.68 1011.34 1011.99 1012.62 1013.25 1013.86 1014.46 1015.07 1015.67 1016.29 1016.93 1017.59 1018.27 1018.95 1019.64 1020.29
1006.50 1006.33 1006.16 1006.00 1005.83 1005.65 1005.46 1005.28 1005.11 1004.98 1004.90 1004.89 1004.97 1005.14 1005.40 1005.75 1006.17 1006.66 1007.20 1007.78 1008.39 1009.02 1009.66 1010.32 1010.97 1011.62 1012.26 1012.90 1013.52 1014.15 1014.78 1015.42 1016.07 1016.74 1017.43 1018.13 1018.83 1019.51
1006.82 1006.68 1006.53 1006.37 1006.18 1005.96 1005.73 1005.49 1005.25 1005.05 1004.90 1004.81 1004.81 1004.89 1005.06 1005.31 1005.64 1006.03 1006.47 1006.97 1007.50 1008.07 1008.66 1009.27 1009.89 1010.53 1011.16 1011.80 1012.44 1013.07 1013.71 1014.35 1015.02 1015.70 1016.40 1017.12 1017.85 1018.56
1007.12 1006.99 1006.85 1006.67 1006.45 1006.20 1005.92 1005.63 1005.35 1005.09 1004.89 1004.74 1004.68 1004.69 1004.78 1004.95 1005.18 1005.47 1005.82 1006.22 1006.66 1007.14 1007.65 1008.20 1008.77 1009.36 1009.96 1010.58 1011.20 1011.82 1012.46 1013.11 1013.78 1014.47 1015.19 1015.94 1016.71 1017.47
1007.33 1007.20 1007.04 1006.83 1006.57 1006.28 1005.96 1005.62 1005.30 1005.01 1004.77 1004.59 1004.48 1004.45 1004.48 1004.58 1004.74 1004.95 1005.20 1005.50 1005.85 1006.23 1006.65 1007.12 1007.62 1008.14 1008.70 1009.27 1009.86 1010.46 1011.08 1011.72 1012.40 1013.11 1013.86 1014.65 1015.46 1016.29
1007.45 1007.29 1007.08 1006.83 1006.52 1006.17 1005.80 1005.43 1005.08 1004.76 1004.51 1004.31 1004.19 1004.13 1004.14 1004.19 1004.30 1004.44 1004.61 1004.82 1005.07 1005.36 1005.69 1006.06 1006.48 1006.93 1007.42 1007.94 1008.49 1009.06 1009.67 1010.31 1010.99 1011.72 1012.51 1013.34 1014.21 1015.12
1007.45 1007.25 1006.99 1006.68 1006.31 1005.91 1005.50 1005.10 1004.73 1004.41 1004.15 1003.96 1003.84 1003.78 1003.77 1003.80 1003.86 1003.95 1004.06 1004.19 1004.35 1004.55 1004.79 1005.08 1005.41 1005.79 1006.21 1006.68 1007.19 1007.74 1008.33 1008.97 1009.67 1010.43 1011.25 1012.13 1013.07 1014.05
1007.36 1007.11 1006.80 1006.44 1006.02 1005.58 1005.14 1004.72 1004.35 1004.03 1003.79 1003.61 1003.50 1003.44 1003.43 1003.44 1003.47 1003.51 1003.56 1003.63 1003.72 1003.84 1004.00 1004.21 1004.47 1004.78 1005.15 1005.57 1006.05 1006.58 1007.17 1007.82 1008.54 1009.33 1010.20 1011.14 1012.14 1013.18
1007.18 1006.90 1006.56 1006.16 1005.72 1005.26 1004.81 1004.40 1004.03 1003.73 1003.51 1003.35 1003.25 1003.20 1003.18 1003.17 1003.17 1003.16 1003.16 1003.16 1003.18 1003.24 1003.33 1003.47 1003.67 1003.94 1004.27 1004.67 1005.13 1005.66 1006.26 1006.93 1007.68 1008.51 1009.42 1010.41 1011.47 1012.56
1006.94 1006.65 1006.29 1005.89 1005.45 1005.00 1004.57 1004.18 1003.85 1003.58 1003.37 1003.23 1003.14 1003.08 1003.04 1003.00 1002.96 1002.90 1002.84 1002.78 1002.74 1002.73 1002.76 1002.86 1003.02 1003.26 1003.57 1003.96 1004.43 1004.97 1005.60 1006.30 1007.08 1007.96 1008.92 1009.95 1011.05 1012.20
1006.62 1006.35 1006.02 1005.64 1005.24 1004.83 1004.45 1004.10 1003.81 1003.57 1003.39 1003.26 1003.16 1003.09 1003.01 1002.92 1002.81 1002.69 1002.56 1002.44 1002.34 1002.28 1002.27 1002.33 1002.48 1002.70 1003.02 1003.42 1003.90 1004.48 1005.13 1005.87 1006.70 1007.62 1008.62 1009.69 1010.83 1012.00
Thickness
5745 5744 5742 5741 5740 5738 5736 5734 5728 5724 5726 5731 5733 5736 5735 5735 5735 5734 5733 5732 5732 5731 5729 5728 5726 5725 5724 5724 5722 5721 5719 5718 5717 5714 5712 5710 5708 5706
5743 5741 5740 5740 5739 5737 5735 5733 5731 5727 5725 5729 5730 5732 5732 5732 5731 5730 5729 5729 5728 5727 5725 5724 5723 5721 5720 5719 5718 5716 5715 5713 5711 5710 5707 5706 5704 5702
5740 5739 5738 5737 5736 5735 5734 5731 5729 5727 5724 5726 5727 5728 5727 5727 5727 5726 5725 5724 5723 5722 5721 5719 5718 5717 5715 5714 5712 5711 5709 5708 5706 5705 5703 5701 5699 5698
5738 5737 5736 5735 5734 5732 5731 5729 5727 5726 5723 5721 5722 5722 5722 5722 5722 5721 5720 5719 5718 5717 5716 5714 5713 5712 5710 5708 5707 5705 5704 5703 5701 5699 5697 5695 5693 5692
5736 5734 5734 5732 5730 5729 5728 5727 5725 5724 5721 5719 5718 5718 5717 5717 5716 5715 5715 5713 5713 5711 5710 5708 5707 5706 5705 5704 5702 5700 5699 5697 5695 5694 5692 5690 5688 5686
5733 5732 5730 5729 5727 5726 5725 5723 5722 5719 5717 5715 5713 5712 5711 5711 5710 5708 5707 5707 5706 5706 5704 5703 5702 5700 5700 5698 5697 5695 5693 5692 5690 5688 5686 5684 5682 5681
5729 5728 5727 5726 5725 5724 5722 5719 5717 5714 5712 5710 5708 5706 5705 5704 5703 5703 5702 5701 5700 5699 5698 5697 5696 5695 5694 5692 5691 5689 5687 5686 5684 5682 5680 5679 5677 5675
5722 5722 5721 5720 5720 5719 5717 5716 5714 5710 5708 5705 5703 5701 5701 5699 5698 5697 5695 5693 5692 5694 5692 5691 5690 5689 5688 5687 5685 5684 5681 5679 5678 5676 5675 5673 5671 5670
5715 5715 5714 5714 5713 5711 5709 5708 5707 5706 5704 5702 5699 5698 5696 5695 5692 5690 5689 5688 5688 5688 5685 5684 5684 5682 5682 5681 5680 5677 5675 5673 5671 5669 5668 5666 5664 5663
5709 5707 5706 5705 5704 5703 5701 5699 5698 5697 5696 5695 5694 5694 5692 5690 5688 5686 5684 5682 5681 5680 5679 5677 5677 5676 5676 5674 5673 5671 5669 5667 5664 5663 5661 5659 5657 5655
5699 5699 5698 5697 5695 5693 5691 5690 5688 5688 5688 5687 5686 5685 5684 5682 5680 5678 5676 5674 5673 5673 5671 5670 5670 5668 5668 5667 5666 5664 5662 5660 5657 5656 5654 5651 5649 5647
5690 5690 5690 5689 5687 5685 5682 5681 5679 5679 5678 5678 5676 5675 5674 5673 5672 5671 5669 5667 5665 5665 5665 5663 5662 5660 5660 5660 5658 5657 5655 5653 5650 5648 5646 5644 5641 5639
5680 5680 5681 5680 5677 5675 5674 5673 5672 5670 5669 5668 5667 5666 5665 5664 5663 5662 5661 5660 5658 5658 5658 5656 5655 5653 5652 5652 5650 5649 5647 5645 5642 5640 5638 5636 5634 5632
5670 5670 5670 5669 5667 5666 5664 5664 5662 5660 5658 5657 5657 5657 5656 5655 5654 5653 5652 5652 5652 5652 5651 5649 5647 5646 5644 5643 5642 5641 5638 5637 5634 5633 5631 5628 5626 5624
5659 5659 5658 5657 5655 5654 5654 5653 5651 5650 5648 5647 5647 5647 5647 5646 5644 5643 5642 5642 5641 5642 5641 5640 5640 5638 5637 5636 5634 5632 5631 5629 5627 5626 5623 5621 5619 5617
5648 5647 5646 5645 5644 5643 5643 5642 5641 5639 5638 5638 5638 5637 5636 5635 5634 5634 5632 5632 5631 5632 5632 5631 5631 5630 5628 5627 5626 5625 5623 5622 5621 5618 5616 5614 5611 5609
5636 5635 5634 5634 5634 5633 5632 5631 5630 5628 5626 5626 5626 5626 5625 5624 5623 5623 5622 5622 5622 5623 5623 5622 5621 5620 5620 5619 5617 5617 5615 5614 5613 5610 5607 5606 5605 5602
5624 5623 5622 5623 5623 5622 5621 5620 5619 5617 5616 5614 5614 5614 5614 5614 5613 5613 5612 5612 5612 5613 5613 5612 5610 5609 5609 5609 5609 5609 5607 5606 5604 5601 5599 5598 5598 5595
5613 5612 5612 5611 5611 5610 5609 5608 5607 5606 5604 5604 5604 5604 5604 5604 5603 5603 5603 5603 5603 5603 5603 5603 5601 5601 5601 5602 5602 5600 5599 5597 5594 5592 5591 5590 5590 5589
5603 5602 5601 5600 5599 5598 5597 5596 5595 5595 5594 5593 5594 5593 5593 5593 5593 5593 5593 5593 5593 5593 5592 5593 5593 5593 5593 5593 5592 5590 5589 5588 5586 5585 5582 5580 5578 5577
5592 5591 5590 5589 5587 5586 5585 5585 5585 5584 5583 5583 5582 5581 5582 5582 5582 5583 5584 5582 5582 5583 5583 5584 5584 5582 5581 5580 5580 5580 5579 5577 5577 5576 5573 5571 5570 5568
5581 5580 5578 5577 5576 5575 5574 5574 5574 5574 5573 5572 5572 5571 5571 5572 5573 5573 5574 5574 5573 5573 5573 5573 5572 5571 5571 5571 5572 5570 5568 5567 5565 5564 5563 5563 5562 5561
5570 5569 5568 5567 5566 5564 5564 5564 5563 5563 5563 5562 5562 5562 5562 5562 5563 5563 5563 5563 5563 5563 5563 5562 5562 5561 5561 5561 5560 5560 5558 5556 5556 5554 5553 5552 5552 5551